timestamp,surface_pressure_avg,surface_temp_avg,battery_voltage,lat,long
2018-11-10 00:00:00+00:00,324.5347,9.0,13.05,47.84626,-54.09684
2018-11-10 00:10:00+00:00,325.693,9.02,12.97,47.84626,-54.09684
2018-11-10 00:20:00+00:00,327.7547,9.1,13.05,47.84626,-54.09684
2018-11-10 00:30:00+00:00,327.4446,9.1,13.05,47.84626,-54.09684
2018-11-10 00:40:00+00:00,328.7963,9.09,13.05,47.84626,-54.09684
2018-11-10 00:50:00+00:00,327.3346,8.8,13.05,47.84626,-54.09684
2018-11-10 01:00:00+00:00,325.613,8.92,13.05,47.84626,-54.09684
2018-11-10 01:10:00+00:00,327.453,9.28,12.97,47.84626,-54.09684
2018-11-10 01:20:00+00:00,331.1847,9.2,13.05,47.84626,-54.09684
2018-11-10 01:30:00+00:00,332.1196,9.2,13.05,47.84626,-54.09684
2018-11-10 01:40:00+00:00,329.5063,9.29,13.05,47.84626,-54.09684
2018-11-10 01:50:00+00:00,328.4847,9.3,13.05,47.84626,-54.09684
2018-11-10 02:00:00+00:00,325.0764,9.3,12.97,47.84626,-54.09684
2018-11-10 02:10:00+00:00,318.568,9.3,12.89,47.84626,-54.09684
2018-11-10 02:20:00+00:00,316.9513,9.3,12.97,47.84626,-54.09684
2018-11-10 02:30:00+00:00,316.423,9.3,12.97,47.84626,-54.09684
2018-11-10 02:40:00+00:00,313.868,9.32,13.05,47.84626,-54.09684
2018-11-10 02:50:00+00:00,310.2347,9.3,13.05,47.84626,-54.09684
2018-11-10 03:00:00+00:00,306.5729,9.25,12.97,47.84626,-54.09684
2018-11-10 03:10:00+00:00,304.558,9.2,12.89,47.84626,-54.09684
2018-11-10 03:20:00+00:00,295.2347,8.8,12.97,47.84626,-54.09684
2018-11-10 03:30:00+00:00,289.9597,8.52,12.97,47.84626,-54.09684
2018-11-10 03:40:00+00:00,286.2547,9.0,13.05,47.84626,-54.09684
2018-11-10 03:50:00+00:00,282.1013,8.89,13.05,47.84626,-54.09684
2018-11-10 04:00:00+00:00,268.6664,8.6,12.97,47.84626,-54.09684
2018-11-10 04:10:00+00:00,251.9764,8.65,12.89,47.84626,-54.09684
2018-11-10 04:20:00+00:00,243.6764,8.8,12.97,47.84626,-54.09684
2018-11-10 04:30:00+00:00,239.0497,8.8,12.97,47.84626,-54.09684
2018-11-10 04:40:00+00:00,230.8014,8.74,12.97,47.84626,-54.09684
2018-11-10 04:50:00+00:00,217.1198,8.8,12.97,47.84626,-54.09684
2018-11-10 05:00:00+00:00,206.8481,8.85,12.97,47.84626,-54.09684
2018-11-10 05:10:00+00:00,200.9881,8.87,12.89,47.84626,-54.09684
2018-11-10 05:20:00+00:00,194.7065,8.8,12.97,47.84626,-54.09684
2018-11-10 05:30:00+00:00,193.6215,8.7,12.97,47.84626,-54.09684
2018-11-10 05:40:00+00:00,195.0148,8.7,12.97,47.84626,-54.09684
2018-11-10 05:50:00+00:00,189.6714,8.7,12.97,47.84626,-54.09684
2018-11-10 06:00:00+00:00,183.0698,8.7,12.89,47.84626,-54.09684
2018-11-10 06:10:00+00:00,181.9831,8.7,12.81,47.84626,-54.09684
2018-11-10 06:20:00+00:00,182.1998,8.79,12.89,47.84626,-54.09684
2018-11-10 06:30:00+00:00,180.2565,8.88,12.97,47.84626,-54.09684
2018-11-10 06:40:00+00:00,179.9931,8.96,12.97,47.84626,-54.09684
2018-11-10 06:50:00+00:00,183.3665,9.0,12.97,47.84626,-54.09684
2018-11-10 07:00:00+00:00,187.5081,9.0,12.89,47.84626,-54.09684
2018-11-10 07:10:00+00:00,188.7065,9.0,12.81,47.84626,-54.09684
2018-11-10 07:20:00+00:00,190.7881,9.02,12.89,47.84626,-54.09684
2018-11-10 07:30:00+00:00,198.5565,9.07,12.89,47.84626,-54.09684
2018-11-10 07:40:00+00:00,199.1581,9.1,12.97,47.84626,-54.09684
2018-11-10 07:50:00+00:00,200.3431,9.1,12.97,47.84626,-54.09684
2018-11-10 08:00:00+00:00,211.0764,9.19,12.89,47.84626,-54.09684
2018-11-10 08:10:00+00:00,218.1998,9.2,12.81,47.84626,-54.09684
2018-11-10 08:20:00+00:00,220.6765,9.2,12.89,47.84626,-54.09684
2018-11-10 08:30:00+00:00,225.7898,9.1,12.89,47.84626,-54.09684
2018-11-10 08:40:00+00:00,235.1181,9.09,12.89,47.84626,-54.09684
2018-11-10 08:50:00+00:00,241.7197,9.1,12.97,47.84626,-54.09684
2018-11-10 09:00:00+00:00,243.3181,9.05,12.89,47.84626,-54.09684
2018-11-10 09:10:00+00:00,241.4164,9.0,12.81,47.84626,-54.09684
2018-11-10 09:20:00+00:00,245.5831,9.0,12.89,47.84626,-54.09684
2018-11-10 09:30:00+00:00,254.2931,9.09,12.89,47.84626,-54.09684
2018-11-10 09:40:00+00:00,263.7131,9.1,12.89,47.84626,-54.09684
2018-11-10 09:50:00+00:00,268.358,9.02,12.97,47.84626,-54.09684
2018-11-10 10:00:00+00:00,274.9664,9.2,12.81,47.84626,-54.09684
2018-11-10 10:10:00+00:00,278.108,9.27,12.81,47.84626,-54.09684
2018-11-10 10:20:00+00:00,282.4531,9.3,12.89,47.84626,-54.09684
2018-11-10 10:30:00+00:00,289.923,9.3,12.89,47.84626,-54.09684
2018-11-10 10:40:00+00:00,300.9547,9.3,12.89,47.84626,-54.09684
2018-11-10 10:50:00+00:00,302.5963,9.3,12.89,47.84626,-54.09684
2018-11-10 11:00:00+00:00,303.3563,9.3,12.81,47.84626,-54.09684
2018-11-10 11:10:00+00:00,308.7397,9.3,12.81,47.84626,-54.09684
2018-11-10 11:20:00+00:00,319.053,9.3,12.89,47.84626,-54.09684
2018-11-10 11:30:00+00:00,331.8746,9.33,12.97,47.84626,-54.09684
2018-11-10 11:40:00+00:00,343.2395,9.38,12.97,47.84626,-54.09684
2018-11-10 11:50:00+00:00,356.1246,9.39,13.05,47.84626,-54.09684
2018-11-10 12:00:00+00:00,354.8946,9.34,13.05,47.84626,-54.09684
2018-11-10 12:10:00+00:00,358.6579,9.3,13.05,47.84626,-54.09684
2018-11-10 12:20:00+00:00,365.9246,9.33,13.44,47.84626,-54.09684
2018-11-10 12:30:00+00:00,374.0513,9.37,14.08,47.84626,-54.09684
2018-11-10 12:40:00+00:00,379.043,9.4,14.16,47.84626,-54.09684
2018-11-10 12:50:00+00:00,380.7112,9.38,14.08,47.84626,-54.09684
2018-11-10 13:00:00+00:00,388.6629,9.33,13.92,47.84626,-54.09684
2018-11-10 13:10:00+00:00,384.2979,9.3,13.68,47.84626,-54.09684
2018-11-10 13:20:00+00:00,376.9529,9.3,13.68,47.84626,-54.09684
2018-11-10 13:30:00+00:00,380.348,9.3,13.68,47.84626,-54.09684
2018-11-10 13:40:00+00:00,383.3262,9.3,13.68,47.84626,-54.09684
2018-11-10 13:50:00+00:00,380.7379,9.31,13.68,47.84626,-54.09684
2018-11-10 14:00:00+00:00,372.9963,9.35,13.6,47.84626,-54.09684
2018-11-10 14:10:00+00:00,370.1397,9.35,13.44,47.84626,-54.09684
2018-11-10 14:20:00+00:00,362.033,9.37,13.53,47.84626,-54.09684
2018-11-10 14:30:00+00:00,349.2612,9.35,13.44,47.84626,-54.09684
2018-11-10 14:40:00+00:00,354.4246,9.35,13.44,47.84626,-54.09684
2018-11-10 14:50:00+00:00,353.9363,9.35,13.44,47.84626,-54.09684
2018-11-10 15:00:00+00:00,349.7147,9.35,13.37,47.84626,-54.09684
2018-11-10 15:10:00+00:00,346.6746,9.37,13.21,47.84626,-54.09684
2018-11-10 15:20:00+00:00,340.9496,9.36,13.29,47.84626,-54.09684
2018-11-10 15:30:00+00:00,338.6013,9.37,13.29,47.84626,-54.09684
2018-11-10 15:40:00+00:00,333.1713,9.33,13.29,47.84626,-54.09684
2018-11-10 15:50:00+00:00,316.383,9.32,13.29,47.84626,-54.09684
2018-11-10 16:00:00+00:00,303.883,9.35,13.21,47.84626,-54.09684
2018-11-10 16:10:00+00:00,293.8831,9.36,13.05,47.84626,-54.09684
2018-11-10 16:20:00+00:00,277.2764,9.3,13.13,47.84626,-54.09684
2018-11-10 16:30:00+00:00,261.5164,9.3,13.05,47.84626,-54.09684
2018-11-10 16:40:00+00:00,253.393,9.29,13.13,47.84626,-54.09684
2018-11-10 16:50:00+00:00,244.0364,9.2,13.13,47.84626,-54.09684
2018-11-10 17:00:00+00:00,225.9664,9.1,13.05,47.84626,-54.09684
2018-11-10 17:10:00+00:00,215.8031,9.0,12.97,47.84626,-54.09684
2018-11-10 17:20:00+00:00,230.2431,9.0,13.05,47.84626,-54.09684
2018-11-10 17:30:00+00:00,237.8398,9.08,13.05,47.84626,-54.09684
2018-11-10 17:40:00+00:00,214.5031,9.07,13.05,47.84626,-54.09684
2018-11-10 17:50:00+00:00,192.6964,9.0,13.05,47.84626,-54.09684
2018-11-10 18:00:00+00:00,194.8715,9.04,12.97,47.84626,-54.09684
2018-11-10 18:10:00+00:00,182.2831,9.0,12.89,47.84626,-54.09684
2018-11-10 18:20:00+00:00,164.6581,8.82,12.97,47.84626,-54.09684
2018-11-10 18:30:00+00:00,184.0315,9.09,12.97,47.84626,-54.09684
2018-11-10 18:40:00+00:00,210.4231,9.2,12.97,47.84626,-54.09684
2018-11-10 18:50:00+00:00,199.1298,8.9,12.97,47.84626,-54.09684
2018-11-10 19:00:00+00:00,182.2331,8.9,12.89,47.84626,-54.09684
2018-11-10 19:10:00+00:00,190.0631,9.0,12.81,47.84626,-54.09684
2018-11-10 19:20:00+00:00,187.0665,9.1,12.89,47.84626,-54.09684
2018-11-10 19:30:00+00:00,177.7081,9.0,12.89,47.84626,-54.09684
2018-11-10 19:40:00+00:00,186.4565,8.93,12.97,47.84626,-54.09684
2018-11-10 19:50:00+00:00,200.8015,9.0,12.97,47.84626,-54.09684
2018-11-10 20:00:00+00:00,193.4931,8.87,12.89,47.84626,-54.09684
2018-11-10 20:10:00+00:00,193.1898,8.67,12.81,47.84626,-54.09684
2018-11-10 20:20:00+00:00,214.7515,8.96,12.89,47.84626,-54.09684
2018-11-10 20:30:00+00:00,220.1314,9.03,12.89,47.84626,-54.09684
2018-11-10 20:40:00+00:00,218.6664,8.6,12.89,47.84626,-54.09684
2018-11-10 20:50:00+00:00,230.1248,8.65,12.89,47.84626,-54.09684
2018-11-10 21:00:00+00:00,232.9131,8.95,12.81,47.84626,-54.09684
2018-11-10 21:10:00+00:00,225.8615,8.3,12.81,47.84626,-54.09684
2018-11-10 21:20:00+00:00,228.8581,8.43,12.89,47.84626,-54.09684
2018-11-10 21:30:00+00:00,233.0764,9.1,12.89,47.84626,-54.09684
2018-11-10 21:40:00+00:00,229.0814,8.95,12.89,47.84626,-54.09684
2018-11-10 21:50:00+00:00,228.8781,8.9,12.89,47.84626,-54.09684
2018-11-10 22:00:00+00:00,239.2864,8.95,12.81,47.84626,-54.09684
2018-11-10 22:10:00+00:00,250.3098,9.16,12.81,47.84626,-54.09684
2018-11-10 22:20:00+00:00,253.6764,9.2,12.89,47.84626,-54.09684
2018-11-10 22:30:00+00:00,265.5931,9.2,12.89,47.84626,-54.09684
2018-11-10 22:40:00+00:00,278.5131,9.28,12.89,47.84626,-54.09684
2018-11-10 22:50:00+00:00,278.3314,9.22,12.89,47.84626,-54.09684
2018-11-10 23:00:00+00:00,272.8931,9.26,12.81,47.84626,-54.09684
2018-11-10 23:10:00+00:00,282.4264,9.27,12.81,47.84626,-54.09684
2018-11-10 23:20:00+00:00,292.3014,9.3,12.89,47.84626,-54.09684
2018-11-10 23:30:00+00:00,294.2498,9.3,12.89,47.84626,-54.09684
2018-11-10 23:40:00+00:00,306.4214,9.3,12.89,47.84626,-54.09684
2018-11-10 23:50:00+00:00,322.693,9.3,12.89,47.84626,-54.09684
